Temperature
-11 -11 -11 -11 -11 -11 -11 -10 -10 -10 -9 -9 -9 -8 -7 -7 -6 -5 -5 -4 -3 -2 -1 -0 1 3 4 6 8 10 11 12 13 13 14 14 14 15
-11 -11 -11 -12 -12 -11 -11 -11 -10 -10 -10 -9 -9 -8 -8 -8 -7 -6 -5 -4 -3 -3 -2 -0 1 2 4 6 8 9 10 11 12 13 14 14 14 14
-11 -11 -12 -12 -12 -11 -11 -11 -10 -10 -10 -10 -9 -9 -8 -8 -7 -6 -5 -4 -3 -2 -1 -0 1 2 4 5 7 9 10 11 12 13 13 14 14 14
-11 -11 -12 -12 -12 -11 -11 -11 -11 -11 -11 -11 -10 -9 -9 -8 -8 -7 -6 -5 -4 -2 -1 -0 1 2 3 5 6 8 10 11 12 12 13 13 14 14
-11 -11 -11 -12 -12 -11 -11 -11 -11 -11 -11 -11 -11 -10 -9 -9 -8 -7 -6 -5 -4 -2 -1 -0 1 2 3 5 6 8 9 10 12 12 13 13 13 14
-11 -11 -11 -12 -12 -11 -11 -11 -11 -11 -11 -11 -11 -11 -10 -9 -9 -8 -6 -4 -4 -2 -1 -0 1 2 4 5 6 7 9 10 11 12 13 13 13 13
-10 -11 -11 -11 -11 -11 -11 -11 -11 -11 -11 -11 -11 -11 -11 -10 -10 -9 -8 -6 -3 -3 -1 -0 1 2 4 5 6 7 8 9 11 12 13 13 13 13
-10 -10 -11 -11 -12 -11 -11 -11 -11 -12 -12 -11 -12 -12 -11 -11 -11 -10 -10 -8 -5 -3 -2 -0 1 2 3 5 6 7 8 9 10 11 12 13 13 13
-10 -10 -11 -11 -11 -11 -11 -12 -12 -12 -12 -12 -12 -12 -12 -11 -11 -10 -10 -9 -7 -3 -3 -0 1 2 3 5 6 7 8 9 10 11 12 12 13 13
-10 -10 -11 -11 -11 -11 -11 -12 -12 -12 -12 -12 -12 -12 -12 -11 -11 -11 -10 -9 -5 -4 -3 -2 1 2 4 5 6 7 8 9 10 11 12 12 13 13
-10 -11 -11 -11 -11 -11 -11 -12 -12 -12 -12 -12 -12 -12 -11 -11 -11 -11 -10 -9 -7 -4 -3 -2 0 2 4 5 6 7 8 9 10 11 11 12 12 12
-10 -11 -11 -11 -11 -11 -12 -12 -12 -12 -12 -12 -11 -11 -11 -11 -11 -11 -11 -10 -9 -5 -3 -2 0 2 4 5 6 6 7 8 9 10 11 11 11 12
-10 -11 -11 -11 -11 -12 -12 -12 -12 -12 -12 -12 -12 -12 -12 -11 -11 -11 -10 -9 -8 -6 -3 -2 -0 2 3 5 6 6 7 8 9 10 11 11 11 11
-11 -11 -11 -11 -11 -12 -12 -12 -12 -13 -12 -13 -12 -12 -12 -11 -11 -10 -9 -8 -7 -5 -3 -3 -1 1 2 4 5 6 7 8 9 10 10 10 10 11
-11 -11 -11 -11 -12 -12 -12 -12 -13 -13 -13 -13 -13 -12 -12 -11 -10 -9 -8 -7 -5 -4 -3 -2 -1 0 1 3 5 6 7 8 9 10 10 10 10 10
-10 -11 -11 -11 -12 -12 -12 -12 -13 -13 -13 -13 -13 -12 -12 -11 -10 -9 -7 -6 -5 -3 -2 -2 -1 0 2 3 5 6 7 8 9 9 10 10 10 10
-10 -10 -11 -11 -11 -12 -12 -12 -12 -13 -13 -13 -13 -12 -12 -11 -10 -9 -7 -6 -5 -3 -2 -1 -0 0 2 3 4 6 6 7 8 9 9 10 10 10
-10 -10 -11 -11 -12 -12 -12 -12 -12 -13 -13 -13 -12 -12 -12 -11 -10 -9 -8 -6 -5 -3 -2 -1 -0 1 2 3 4 5 6 7 8 9 9 10 10 10
-10 -10 -11 -11 -11 -11 -12 -12 -12 -12 -12 -12 -12 -12 -12 -11 -11 -9 -8 -6 -5 -3 -2 -1 -0 0 2 2 3 4 5 6 7 8 9 9 9 9
-10 -10 -11 -11 -11 -11 -11 -12 -12 -12 -12 -12 -12 -12 -12 -12 -11 -10 -9 -7 -5 -4 -2 -1 -1 -0 1 2 2 3 5 6 7 7 8 8 9 9
-10 -10 -11 -11 -11 -11 -11 -11 -11 -12 -12 -12 -12 -12 -12 -12 -11 -10 -9 -8 -6 -4 -3 -2 -1 -1 0 1 2 3 4 5 6 7 7 8 7 7
-10 -10 -10 -10 -11 -11 -11 -11 -11 -11 -11 -11 -11 -12 -12 -11 -11 -10 -9 -8 -7 -6 -4 -3 -1 -1 0 1 2 2 3 4 5 6 7 8 8 7
-10 -10 -10 -10 -10 -10 -10 -11 -11 -11 -11 -11 -11 -11 -11 -11 -11 -10 -10 -9 -7 -6 -4 -3 -2 -1 -0 0 1 1 2 3 3 4 5 6 7 8
Wind_Speed
10 11 9 10 10 10 10 11 10 13 13 9 8 10 10 11 16 14 11 18 21 22 22 21 21 21 21 20 19 18 17 16 18 22 28 34 37 37
9 10 10 9 10 10 10 10 9 10 12 9 11 11 13 13 18 15 14 22 22 23 23 23 23 22 21 19 18 17 16 15 18 22 26 30 33 34
11 10 11 11 10 10 10 10 9 9 12 12 10 11 13 12 12 12 14 12 13 21 23 23 22 22 20 19 17 16 15 15 17 21 25 28 30 30
12 11 11 11 12 11 10 11 9 9 10 15 13 11 12 12 11 12 12 12 10 18 22 22 22 21 20 19 17 15 13 13 15 19 23 25 27 27
12 12 11 11 12 11 12 10 9 10 9 11 13 11 10 10 11 12 12 10 12 15 18 20 21 22 21 19 17 15 13 13 15 17 20 22 24 25
12 11 10 11 12 11 11 10 10 9 9 10 11 11 10 9 9 10 12 10 11 12 13 14 16 19 21 20 19 16 13 12 14 16 18 20 22 24
11 11 10 15 17 15 13 11 10 8 9 10 11 11 10 10 10 10 12 12 12 7 7 8 8 9 10 16 16 16 14 13 14 15 16 18 21 24
11 10 10 12 16 20 23 22 18 12 11 9 10 11 12 11 10 11 11 11 7 6 8 10 8 8 8 9 13 15 15 14 13 16 16 18 20 22
10 8 9 11 14 10 15 18 16 20 19 13 10 11 12 11 12 12 11 11 12 10 10 8 7 9 8 10 15 15 15 14 14 15 17 18 19 21
8 8 9 9 11 14 9 8 8 10 14 11 9 11 11 11 11 11 12 13 13 12 9 6 6 7 7 7 13 16 15 15 15 15 17 18 18 19
7 8 9 8 17 21 10 9 10 10 14 18 19 17 19 18 14 8 8 9 8 6 4 5 5 5 5 6 9 15 15 15 16 16 17 18 18 18
7 7 13 15 19 20 9 8 11 10 9 12 13 15 12 13 15 8 7 8 7 5 4 5 4 3 3 4 6 8 9 13 16 17 18 19 19 13
8 7 8 19 20 19 15 9 14 14 10 11 10 9 8 7 8 7 8 8 9 7 5 5 4 4 3 2 4 5 7 7 9 12 17 20 20 15
9 8 10 19 19 19 15 17 20 17 9 10 10 9 9 9 8 9 10 10 11 13 12 8 5 5 4 2 3 4 5 6 8 10 12 18 19 16
9 17 18 19 17 13 17 20 16 10 10 11 11 11 10 10 10 9 8 9 10 12 12 12 10 7 5 4 1 3 3 5 7 10 11 13 13 14
9 13 17 17 14 15 14 12 10 10 11 10 11 11 10 10 9 9 8 7 5 4 6 8 9 8 5 5 2 2 2 4 7 9 10 10 10 11
9 6 6 7 8 8 8 8 8 10 11 11 11 11 11 11 10 10 8 7 4 5 5 4 4 6 6 3 1 2 3 3 5 8 10 9 8 11
10 7 8 9 9 10 10 10 9 10 11 11 11 12 12 12 11 10 9 8 7 6 5 4 4 2 1 1 6 1 1 3 4 7 9 10 8 9
7 6 7 8 9 9 9 8 8 9 9 10 11 11 12 12 12 11 11 10 8 7 6 5 4 3 2 2 5 9 2 3 5 6 7 8 7 9
6 6 8 8 8 8 8 8 8 8 8 9 10 10 10 11 12 12 11 12 9 8 7 6 6 5 3 2 2 6 12 4 6 9 9 10 10 14
7 7 7 8 8 8 8 8 8 8 8 8 9 10 10 10 11 11 11 15 11 8 8 7 7 8 3 1 3 4 7 15 12 8 9 13 12 10
7 7 8 8 8 8 8 7 7 7 8 8 8 9 9 9 11 12 12 11 10 9 8 7 7 5 3 4 6 5 6 9 16 22 19 10 9 10
6 7 7 8 8 7 7 7 7 7 6 7 8 8 9 9 9 10 10 11 10 10 9 8 6 5 5 4 5 7 10 10 9 13 14 19 26 32
Wind_Direction
305 305 309 309 310 308 307 308 307 310 311 308 314 312 313 310 307 304 298 293 285 279 274 273 273 274 273 273 270 265 260 250 229 213 207 205 203 202
302 303 308 311 311 311 311 311 307 306 305 308 310 308 311 311 308 311 306 296 287 282 275 270 268 269 268 269 268 263 254 244 227 213 207 205 203 201
300 302 303 307 308 311 310 309 310 311 309 310 309 308 306 306 305 306 300 291 283 279 275 270 264 264 263 264 264 261 251 240 223 211 206 205 203 199
292 294 297 306 304 306 306 306 306 307 309 312 312 312 308 309 310 310 307 300 291 283 276 270 264 261 258 259 259 256 250 238 219 207 204 202 200 196
282 285 289 296 299 301 304 304 305 313 309 308 310 312 311 315 319 315 313 306 299 289 280 271 263 258 254 253 253 250 244 234 215 202 199 198 196 192
275 276 281 286 289 295 305 306 311 313 311 310 309 311 313 318 324 324 320 317 308 298 285 275 267 258 249 245 244 241 234 226 211 198 194 194 191 189
274 272 278 295 307 314 318 318 319 315 314 312 311 312 315 323 324 322 317 317 307 291 305 290 277 258 243 239 236 229 223 216 209 199 190 188 187 187
282 276 281 292 303 318 319 322 327 323 316 311 311 310 309 310 312 312 314 315 310 322 332 303 285 264 245 227 219 214 212 208 205 196 188 184 184 184
290 284 292 301 313 298 307 322 323 321 320 314 305 299 299 299 299 300 300 298 288 294 307 289 271 262 247 228 210 205 205 201 198 192 186 181 181 182
293 284 284 289 299 308 316 317 304 304 309 308 290 289 289 286 281 283 290 294 288 275 252 262 270 261 252 223 207 200 200 198 193 188 184 181 179 179
307 305 310 299 310 325 338 321 313 306 319 323 321 317 315 313 308 299 294 296 299 290 267 256 272 270 248 216 199 194 194 194 191 187 184 180 177 175
324 325 330 328 330 339 341 323 315 318 328 325 321 319 313 308 311 302 286 281 283 286 307 322 294 289 243 198 183 186 190 194 190 187 182 175 170 171
335 331 323 332 342 344 344 326 328 343 336 322 318 315 311 302 295 284 268 261 260 260 290 331 304 296 271 200 170 179 183 183 183 185 179 172 172 171
334 324 325 341 349 348 344 341 349 347 331 328 329 328 326 319 308 295 278 261 249 252 263 274 275 292 306 277 162 165 179 177 172 175 177 173 172 168
334 339 343 349 351 345 345 350 351 340 337 339 335 331 325 316 312 307 293 277 261 250 250 246 246 262 275 274 242 158 163 175 170 166 168 174 177 171
331 339 346 348 350 350 350 347 344 343 346 339 333 331 329 329 329 328 322 318 302 283 255 246 244 246 261 265 253 169 160 168 163 159 158 160 163 164
347 342 338 341 346 346 345 345 345 346 347 343 341 341 341 342 341 341 336 335 335 332 325 309 274 248 245 296 233 144 143 142 151 148 151 148 153 158
358 345 344 345 345 345 345 344 345 348 347 346 346 346 346 345 345 347 350 349 347 342 338 330 326 309 296 23 20 43 97 120 135 138 142 140 142 146
358 340 340 339 338 338 338 339 339 340 341 345 347 348 348 349 350 352 354 355 353 347 342 343 351 353 15 30 7 10 46 121 121 120 127 125 127 137
343 339 337 335 335 335 335 336 335 337 343 345 348 349 350 352 354 355 355 356 352 349 351 356 1 1 8 6 11 7 16 62 121 119 114 105 95 98
338 336 334 332 331 331 332 332 333 336 342 344 347 349 351 353 355 355 354 356 360 353 354 349 332 328 313 355 70 39 29 41 69 109 125 123 115 113
331 331 330 328 329 328 329 332 333 337 343 347 347 349 351 354 355 354 354 355 354 350 341 335 335 347 18 63 83 78 61 57 55 55 52 78 130 136
323 323 323 325 326 326 328 331 335 338 344 346 347 349 351 354 354 354 353 353 353 353 352 351 357 16 38 66 87 88 82 75 73 71 62 76 94 107
Height
1447 1441 1435 1429 1424 1419 1414 1409 1404 1395 1387 1383 1381 1378 1376 1374 1372 1371 1370 1370 1370 1372 1374 1376 1378 1381 1385 1390 1395 1402 1409 1416 1423 1431 1439 1448 1457 1467
1443 1437 1431 1425 1419 1415 1410 1405 1401 1396 1388 1382 1378 1374 1371 1369 1367 1366 1364 1363 1363 1364 1366 1369 1371 1374 1378 1382 1388 1395 1402 1409 1416 1423 1431 1440 1450 1459
1438 1433 1427 1421 1416 1410 1406 1402 1397 1393 1386 1378 1375 1371 1367 1364 1361 1359 1357 1356 1356 1357 1359 1362 1364 1367 1371 1375 1381 1387 1394 1401 1408 1415 1423 1432 1442 1452
1433 1428 1423 1417 1412 1407 1402 1397 1393 1389 1384 1376 1370 1366 1363 1360 1357 1354 1352 1350 1350 1350 1352 1355 1357 1361 1364 1369 1374 1380 1387 1394 1402 1409 1416 1425 1434 1444
1428 1423 1418 1414 1408 1404 1399 1394 1389 1384 1379 1374 1367 1362 1359 1356 1351 1348 1346 1344 1344 1344 1346 1348 1351 1354 1358 1362 1368 1373 1380 1388 1395 1402 1409 1417 1426 1436
1423 1419 1414 1410 1405 1400 1396 1390 1385 1380 1375 1370 1364 1359 1355 1351 1348 1344 1340 1338 1338 1339 1340 1342 1344 1347 1351 1356 1361 1367 1373 1381 1388 1395 1402 1410 1418 1427
1418 1414 1410 1406 1402 1398 1393 1387 1382 1376 1371 1366 1360 1355 1351 1347 1344 1341 1337 1334 1333 1334 1334 1336 1339 1341 1343 1349 1354 1360 1367 1374 1381 1389 1396 1403 1411 1419
1413 1408 1405 1401 1398 1394 1389 1384 1379 1373 1368 1363 1357 1352 1348 1344 1341 1338 1335 1332 1330 1331 1330 1330 1333 1335 1338 1343 1348 1354 1361 1368 1375 1383 1390 1398 1405 1413
1409 1404 1400 1397 1393 1388 1383 1379 1374 1369 1365 1360 1354 1349 1344 1341 1338 1334 1332 1329 1326 1326 1327 1325 1327 1329 1332 1337 1342 1349 1355 1362 1370 1377 1385 1392 1400 1408
1406 1401 1397 1393 1389 1384 1379 1373 1369 1364 1360 1355 1350 1345 1341 1337 1335 1332 1328 1325 1322 1322 1324 1322 1322 1324 1327 1331 1336 1343 1349 1356 1364 1372 1379 1387 1395 1402
1403 1399 1394 1389 1385 1381 1375 1369 1364 1359 1355 1350 1345 1340 1336 1333 1330 1328 1325 1322 1319 1318 1320 1320 1319 1320 1322 1326 1331 1337 1344 1350 1358 1366 1374 1383 1391 1398
1401 1396 1391 1387 1383 1378 1372 1367 1361 1356 1350 1344 1339 1335 1331 1327 1325 1323 1320 1319 1317 1315 1315 1316 1315 1316 1319 1321 1326 1331 1338 1345 1353 1361 1369 1377 1386 1394
1399 1394 1389 1385 1380 1375 1371 1365 1360 1354 1347 1341 1336 1331 1327 1323 1319 1317 1315 1314 1312 1311 1312 1312 1312 1313 1314 1316 1321 1326 1333 1339 1347 1356 1364 1373 1382 1389
1398 1393 1388 1384 1379 1374 1368 1364 1359 1352 1345 1339 1334 1329 1324 1319 1315 1312 1310 1308 1307 1307 1308 1309 1309 1309 1310 1312 1316 1322 1328 1334 1342 1350 1359 1369 1378 1386
1397 1393 1388 1383 1377 1372 1367 1362 1356 1350 1344 1339 1333 1327 1322 1317 1312 1309 1306 1305 1304 1304 1305 1306 1307 1306 1308 1310 1312 1317 1323 1329 1337 1345 1354 1363 1372 1381
1396 1391 1387 1382 1377 1372 1367 1361 1355 1350 1345 1339 1333 1327 1321 1316 1311 1307 1304 1303 1302 1302 1303 1304 1305 1306 1306 1308 1311 1315 1320 1324 1332 1340 1350 1360 1369 1377
1396 1391 1385 1380 1375 1371 1366 1361 1356 1350 1345 1339 1333 1327 1321 1316 1311 1307 1304 1302 1302 1302 1302 1303 1303 1304 1305 1307 1309 1312 1317 1323 1329 1337 1346 1356 1365 1374
1395 1390 1385 1381 1376 1371 1366 1361 1356 1351 1346 1340 1335 1329 1323 1317 1312 1308 1305 1303 1301 1301 1301 1302 1303 1304 1305 1306 1308 1312 1315 1320 1327 1334 1342 1351 1361 1371
1394 1390 1386 1382 1377 1373 1368 1363 1358 1353 1348 1342 1337 1331 1325 1320 1315 1310 1307 1304 1303 1302 1301 1302 1303 1303 1304 1305 1308 1312 1315 1319 1325 1332 1340 1349 1357 1366
1394 1390 1386 1382 1378 1374 1369 1365 1360 1355 1349 1344 1339 1333 1328 1323 1318 1313 1309 1307 1305 1304 1304 1305 1305 1305 1306 1308 1309 1311 1315 1319 1323 1329 1337 1345 1356 1366
1393 1390 1387 1383 1379 1375 1371 1366 1361 1356 1352 1346 1341 1336 1331 1326 1321 1317 1313 1311 1308 1306 1306 1306 1307 1308 1309 1310 1312 1314 1317 1320 1325 1329 1336 1343 1353 1363
1393 1390 1387 1383 1380 1376 1372 1367 1363 1358 1353 1349 1344 1339 1334 1330 1325 1321 1317 1313 1311 1310 1309 1309 1310 1311 1312 1312 1314 1317 1320 1323 1326 1331 1339 1345 1350 1360
1392 1389 1386 1383 1380 1376 1372 1368 1364 1360 1356 1351 1347 1342 1338 1333 1329 1325 1321 1318 1315 1313 1312 1312 1313 1314 1315 1317 1319 1322 1324 1327 1331 1336 1342 1348 1355 1364